TimeCST,TemperatureF,Dew PointF,Humidity,Sea Level PressureIn,VisibilityMPH,Wind Direction,Wind SpeedMPH,Gust SpeedMPH,PrecipitationIn,Events,Conditions,WindDirDegrees,DateUTC
12:15 AM,37.4,28.4,70,30.36,10.0,Calm,Calm,-,N/A,,Clear,0,2012-12-05 06:15:00
12:35 AM,37.4,30.2,75,30.37,10.0,Calm,Calm,-,N/A,,Clear,0,2012-12-05 06:35:00
12:55 AM,37.4,28.4,70,30.36,10.0,Calm,Calm,-,N/A,,Clear,0,2012-12-05 06:55:00
1:15 AM,35.6,28.4,75,30.36,10.0,Calm,Calm,-,N/A,,Clear,0,2012-12-05 07:15:00
1:55 AM,33.8,26.6,75,30.36,10.0,Calm,Calm,-,N/A,,Clear,0,2012-12-05 07:55:00
2:15 AM,35.6,28.4,75,30.35,10.0,Calm,Calm,-,N/A,,Clear,0,2012-12-05 08:15:00
2:35 AM,35.6,28.4,75,30.35,10.0,Calm,Calm,-,N/A,,Clear,0,2012-12-05 08:35:00
2:55 AM,33.8,28.4,81,30.33,10.0,Calm,Calm,-,N/A,,Clear,0,2012-12-05 08:55:00
3:15 AM,33.8,28.4,81,30.33,10.0,Calm,Calm,-,N/A,,Clear,0,2012-12-05 09:15:00
3:35 AM,33.8,26.6,75,30.33,10.0,Calm,Calm,-,N/A,,Clear,0,2012-12-05 09:35:00
3:55 AM,33.8,26.6,75,30.33,10.0,Calm,Calm,-,N/A,,Clear,0,2012-12-05 09:55:00
4:15 AM,33.8,26.6,75,30.32,10.0,Calm,Calm,-,N/A,,Clear,0,2012-12-05 10:15:00
4:35 AM,32.0,26.6,80,30.32,10.0,Calm,Calm,-,N/A,,Clear,0,2012-12-05 10:35:00
4:55 AM,32.0,26.6,80,30.32,10.0,Calm,Calm,-,N/A,,Clear,0,2012-12-05 10:55:00
5:15 AM,30.2,26.6,86,30.32,10.0,NNW,8.1,-,N/A,,Clear,330,2012-12-05 11:15:00
5:35 AM,30.2,24.8,80,30.31,10.0,Calm,Calm,-,N/A,,Clear,0,2012-12-05 11:35:00
5:55 AM,30.2,24.8,80,30.32,10.0,Calm,Calm,-,N/A,,Clear,0,2012-12-05 11:55:00
6:15 AM,30.2,24.8,80,30.32,10.0,Calm,Calm,-,N/A,,Clear,0,2012-12-05 12:15:00
6:35 AM,30.2,26.6,86,30.32,10.0,Calm,Calm,-,N/A,,Clear,0,2012-12-05 12:35:00
6:55 AM,28.4,24.8,86,30.32,10.0,Calm,Calm,-,N/A,,Clear,0,2012-12-05 12:55:00
8:35 AM,35.6,28.4,75,30.34,10.0,Calm,Calm,-,N/A,,Clear,0,2012-12-05 14:35:00
8:55 AM,41.0,30.2,65,30.34,10.0,Calm,Calm,-,N/A,,Clear,0,2012-12-05 14:55:00
9:15 AM,46.4,33.8,62,30.34,10.0,Calm,Calm,-,N/A,,Clear,0,2012-12-05 15:15:00
9:35 AM,48.2,33.8,58,30.34,10.0,Calm,Calm,-,N/A,,Clear,0,2012-12-05 15:35:00
9:55 AM,50.0,33.8,54,30.35,10.0,Calm,Calm,-,N/A,,Clear,0,2012-12-05 15:55:00
10:15 AM,51.8,33.8,50,30.35,10.0,Calm,Calm,-,N/A,,Clear,0,2012-12-05 16:15:00
10:35 AM,53.6,33.8,47,30.34,10.0,Calm,Calm,-,N/A,,Clear,0,2012-12-05 16:35:00
10:55 AM,55.4,33.8,44,30.34,10.0,Calm,Calm,-,N/A,,Clear,0,2012-12-05 16:55:00
11:15 AM,55.4,33.8,44,30.33,10.0,Calm,Calm,-,N/A,,Clear,0,2012-12-05 17:15:00
11:35 AM,57.2,33.8,41,30.32,10.0,South,6.9,-,N/A,,Clear,170,2012-12-05 17:35:00
11:55 AM,60.8,33.8,36,30.30,10.0,South,10.4,-,N/A,,Clear,170,2012-12-05 17:55:00
12:15 PM,62.6,33.8,34,30.29,10.0,South,10.4,-,N/A,,Clear,190,2012-12-05 18:15:00
12:35 PM,62.6,33.8,34,30.28,10.0,South,10.4,-,N/A,,Clear,190,2012-12-05 18:35:00
12:55 PM,62.6,33.8,34,30.26,10.0,South,8.1,-,N/A,,Clear,180,2012-12-05 18:55:00
1:15 PM,64.4,33.8,32,30.24,10.0,South,11.5,-,N/A,,Clear,180,2012-12-05 19:15:00
1:35 PM,64.4,33.8,32,30.23,10.0,South,10.4,-,N/A,,Clear,180,2012-12-05 19:35:00
1:55 PM,66.2,33.8,30,30.21,10.0,SSE,12.7,-,N/A,,Clear,160,2012-12-05 19:55:00
2:15 PM,64.4,33.8,32,30.20,10.0,SSW,9.2,-,N/A,,Clear,200,2012-12-05 20:15:00
2:35 PM,66.2,33.8,30,30.18,10.0,South,11.5,-,N/A,,Clear,170,2012-12-05 20:35:00
2:55 PM,66.2,32.0,28,30.18,10.0,South,12.7,-,N/A,,Clear,170,2012-12-05 20:55:00
3:15 PM,68.0,33.8,28,30.16,10.0,South,12.7,-,N/A,,Clear,170,2012-12-05 21:15:00
3:35 PM,68.0,33.8,28,30.16,10.0,South,6.9,-,N/A,,Clear,180,2012-12-05 21:35:00
3:55 PM,68.0,32.0,26,30.16,10.0,South,9.2,-,N/A,,Clear,180,2012-12-05 21:55:00
4:15 PM,68.0,32.0,26,30.15,10.0,SW,8.1,-,N/A,,Clear,220,2012-12-05 22:15:00
4:35 PM,68.0,32.0,26,30.15,10.0,South,9.2,-,N/A,,Clear,190,2012-12-05 22:35:00
4:55 PM,68.0,32.0,26,30.15,10.0,South,11.5,-,N/A,,Clear,180,2012-12-05 22:55:00
5:15 PM,66.2,30.2,26,30.15,10.0,South,11.5,-,N/A,,Clear,180,2012-12-05 23:15:00
5:35 PM,64.4,30.2,28,30.15,10.0,SSW,9.2,-,N/A,,Clear,200,2012-12-05 23:35:00
5:55 PM,60.8,30.2,31,30.15,10.0,South,6.9,-,N/A,,Clear,190,2012-12-05 23:55:00
6:15 PM,57.2,30.2,36,30.14,10.0,SSW,8.1,-,N/A,,Clear,200,2012-12-06 00:15:00
6:35 PM,55.4,28.4,36,30.14,10.0,SSW,6.9,-,N/A,,Clear,200,2012-12-06 00:35:00
6:55 PM,53.6,28.4,38,30.14,10.0,South,5.8,-,N/A,,Clear,190,2012-12-06 00:55:00
7:15 PM,51.8,28.4,41,30.14,10.0,SSW,5.8,-,N/A,,Clear,200,2012-12-06 01:15:00
7:35 PM,50.0,26.6,40,30.14,10.0,Calm,Calm,-,N/A,,Clear,0,2012-12-06 01:35:00
7:55 PM,46.4,26.6,46,30.14,10.0,Calm,Calm,-,N/A,,Clear,0,2012-12-06 01:55:00
8:15 PM,44.6,24.8,46,30.14,10.0,Calm,Calm,-,N/A,,Clear,0,2012-12-06 02:15:00
8:35 PM,46.4,26.6,46,30.14,10.0,Calm,Calm,-,N/A,,Clear,0,2012-12-06 02:35:00
8:55 PM,42.8,24.8,49,30.14,10.0,Calm,Calm,-,N/A,,Clear,0,2012-12-06 02:55:00
9:15 PM,42.8,24.8,49,30.14,10.0,Calm,Calm,-,N/A,,Clear,0,2012-12-06 03:15:00
9:35 PM,41.0,24.8,53,30.14,10.0,Calm,Calm,-,N/A,,Clear,0,2012-12-06 03:35:00
9:55 PM,39.2,23.0,52,30.14,10.0,Calm,Calm,-,N/A,,Clear,0,2012-12-06 03:55:00
10:15 PM,39.2,24.8,56,30.13,10.0,Calm,Calm,-,N/A,,Clear,0,2012-12-06 04:15:00
10:35 PM,39.2,24.8,56,30.13,10.0,Calm,Calm,-,N/A,,Clear,0,2012-12-06 04:35:00
10:55 PM,37.4,23.0,56,30.12,10.0,Calm,Calm,-,N/A,,Clear,0,2012-12-06 04:55:00
11:15 PM,35.6,21.2,56,30.11,10.0,Calm,Calm,-,N/A,,Clear,0,2012-12-06 05:15:00
11:35 PM,35.6,23.0,60,30.11,10.0,Calm,Calm,-,N/A,,Clear,0,2012-12-06 05:35:00
11:55 PM,35.6,23.0,60,30.11,10.0,Calm,Calm,-,N/A,,Clear,0,2012-12-06 05:55:00